User: anonymous   Login
Location: Unspecified
(0.0000°N, 0.0000°E)
Time: 19:11:01
(UTC+00:00)
Language:

OBJECT K - Orbit

View from above orbital plane
View from above orbital plane
View from above satellite
View from above satellite

Ground track
Ground track

The orbit data is extracted from the following two-line orbital elements,

1 43189U 18014K   18351.29588436  .00000713  00000-0  67735-4 0  9995
2 43189  97.7175 257.3001 0009409 257.6920 102.3248 14.96552308 46254
Epoch (UTC): 17 December 2018 07:06:04
Eccentricity: 0.0009409
inclination: 97.7175°
perigee height: 571 km
apogee height: 584 km
right ascension of ascending node: 257.3001°
argument of perigee: 257.6920°
revolutions per day: 14.96552308
mean anomaly at epoch: 102.3248°
orbit number at epoch: 4625

The dashed part of the orbit path shows where the satellite is in the earth's shadow,  

DLR